Location: Bottom School (historical)
(37.9078°N, 89.3593°W)
Time: 18:46:53
(UTC+00:00)

SL-4 R/B - Pass Details

Date: 04 July 2022
Orbit: 425 x 653 km, 51.6° (Epoch: 15 August)

Event Time Altitude Azimuth Distance (km) Brightness Sun altitude
Rises 09:53:23 0° 316° (NW) 2,570 5.4 -8.5°
Reaches altitude 10° 09:56:26 10° 343° (NNW) 1,740 4.8 -8.0°
Maximum altitude 09:58:33 14° 15° (NNE) 1,542 5.1 -7.7°
Drops below altitude 10° 10:00:44 10° 48° (NE) 1,815 6.4 -7.4°
Sets 10:04:03 0° 74° (ENE) 2,769 7.2 -6.8°
